Location: Newark
(20.1200°S, 168.9600°E)
Time: 00:03:05
(UTC+00:00)

LightSail 2 - Pass Details

Date: 01 December 2019
Orbit: 696 x 730 km, 24.0° (Epoch: 06 December)

Event Time Altitude Azimuth Distance (km) Brightness Sun altitude
Exits shadow 16:47:24 20° 327° (NNW) 1,582 6.4 -15.1°
Maximum altitude 16:50:18 38° 22° (NNE) 1,084 6.0 -14.5°
Drops below altitude 10° 16:55:05 10° 89° (E) 2,196 8.6 -13.5°
Sets 16:57:41 0° 97° (E) 3,124 9.8 -13.0°
